"read_dt","SO2 (ppb)","flags","PMT voltage (V)","lamp voltage (V)","lamp intensity (Hz)","internal temp (C)","react chamber temp (C)","sample flow (l/min)","pres (mmHg)","SO2 bkg (ppb)","SO2 coefficient"
2015-12-25 00:00:00,2452E-3,5C000400,-0724,0834,12185,020.5,045.3,0.268,752.7,01.17,0.508
2015-12-25 00:01:00,2362E-3,5C000400,-0724,0834,12199,020.5,045.3,0.268,752.9,01.17,0.508
2015-12-25 00:02:00,2305E-3,5C000400,-0724,0834,12128,020.5,045.3,0.268,752.8,01.17,0.508
2015-12-25 00:03:00,2221E-3,5C000400,-0724,0834,12093,020.5,045.3,0.269,752.8,01.17,0.508
2015-12-25 00:04:00,2195E-3,5C000400,-0724,0833,12130,020.5,045.3,0.269,752.7,01.17,0.508
2015-12-25 00:05:00,2326E-3,5C000400,-0724,0833,12073,020.5,045.3,0.269,752.8,01.17,0.508
2015-12-25 00:06:00,2134E-3,5C000400,-0724,0834,12294,020.6,045.2,0.269,752.6,01.17,0.508
2015-12-25 00:07:00,2266E-3,5C000400,-0724,0834,12108,020.5,045.2,0.268,752.5,01.17,0.508
2015-12-25 00:08:00,2062E-3,5C000400,-0724,0833,12049,020.5,045.3,0.268,752.5,01.17,0.508
2015-12-25 00:09:00,2314E-3,5C000400,-0724,0834,11987,020.5,045.2,0.268,752.8,01.17,0.508
2015-12-25 00:10:00,2064E-3,5C000400,-0724,0833,12071,020.6,045.2,0.268,752.8,01.17,0.508
2015-12-25 00:11:00,2189E-3,5C000400,-0724,0835,12277,020.6,045.2,0.269,752.8,01.17,0.508
2015-12-25 00:12:00,2224E-3,5C000400,-0724,0833,12101,020.6,045.2,0.269,752.8,01.17,0.508
2015-12-25 00:13:00,2111E-3,5C000400,-0724,0834,12141,020.6,045.2,0.269,752.8,01.17,0.508
2015-12-25 00:14:00,2198E-3,5C000400,-0724,0833,12176,020.6,045.2,0.268,752.8,01.17,0.508
2015-12-25 00:15:00,2136E-3,5C000400,-0724,0834,12088,020.6,045.3,0.269,752.7,01.17,0.508
2015-12-25 00:16:00,2152E-3,5C000400,-0724,0833,12024,020.6,045.3,0.269,752.7,01.17,0.508
2015-12-25 00:17:00,2189E-3,5C000400,-0724,0833,12191,020.6,045.3,0.269,752.6,01.17,0.508
2015-12-25 00:18:00,2146E-3,5C000400,-0724,0833,12221,020.6,045.2,0.269,752.6,01.17,0.508
2015-12-25 00:19:00,2314E-3,5C000400,-0724,0833,12257,020.6,045.2,0.268,752.5,01.17,0.508
2015-12-25 00:20:00,2191E-3,5C000400,-0724,0833,12273,020.6,045.3,0.268,752.5,01.17,0.508
2015-12-25 00:21:00,2332E-3,5C000400,-0724,0833,12289,020.6,045.3,0.268,752.5,01.17,0.508
2015-12-25 00:22:00,2205E-3,5C000400,-0724,0833,12267,020.6,045.2,0.269,752.2,01.17,0.508
2015-12-25 00:23:00,2077E-3,5C000400,-0724,0833,12149,020.6,045.2,0.268,752.5,01.17,0.508
2015-12-25 00:24:00,2080E-3,5C000400,-0724,0834,12139,020.6,045.2,0.268,752.1,01.17,0.508
2015-12-25 00:25:00,2167E-3,5C000400,-0724,0834,12275,020.6,045.2,0.268,752.6,01.17,0.508
2015-12-25 00:26:00,2183E-3,5C000400,-0724,0834,12112,020.6,045.3,0.268,752.4,01.17,0.508
2015-12-25 00:27:00,2180E-3,5C000400,-0724,0833,12283,020.6,045.2,0.269,752.3,01.17,0.508
2015-12-25 00:28:00,2301E-3,5C000400,-0724,0833,12108,020.6,045.2,0.269,752.1,01.17,0.508
2015-12-25 00:29:00,2060E-3,5C000400,-0724,0834,12194,020.6,045.3,0.268,752.2,01.17,0.508
2015-12-25 00:30:00,2072E-3,5C000400,-0724,0833,12232,020.6,045.3,0.268,752.1,01.17,0.508
2015-12-25 00:31:00,2146E-3,5C000400,-0724,0834,12068,020.6,045.2,0.268,751.8,01.17,0.508
2015-12-25 00:32:00,2129E-3,5C000400,-0724,0833,12163,020.6,045.2,0.268,751.9,01.17,0.508
2015-12-25 00:33:00,2099E-3,5C000400,-0724,0833,12208,020.6,045.2,0.268,751.9,01.17,0.508
2015-12-25 00:34:00,2185E-3,5C000400,-0724,0834,12036,020.6,045.3,0.268,751.7,01.17,0.508
2015-12-25 00:35:00,2228E-3,5C000400,-0724,0833,12277,020.6,045.2,0.268,751.7,01.17,0.508
2015-12-25 00:36:00,2199E-3,5C000400,-0724,0834,12168,020.6,045.2,0.268,751.7,01.17,0.508
2015-12-25 00:37:00,2088E-3,5C000400,-0724,0834,12171,020.6,045.2,0.268,751.9,01.17,0.508
2015-12-25 00:38:00,2174E-3,5C000400,-0724,0833,12149,020.6,045.2,0.269,751.6,01.17,0.508
2015-12-25 00:39:00,2191E-3,5C000400,-0724,0833,12065,020.6,045.2,0.269,751.6,01.17,0.508
2015-12-25 00:40:00,2170E-3,5C000400,-0724,0833,12229,020.6,045.2,0.268,751.5,01.17,0.508
2015-12-25 00:41:00,2175E-3,5C000400,-0724,0833,12146,020.6,045.2,0.268,751.4,01.17,0.508
2015-12-25 00:42:00,2106E-3,5C000400,-0724,0834,12124,020.6,045.2,0.268,751.5,01.17,0.508
2015-12-25 00:43:00,2195E-3,5C000400,-0724,0834,12205,020.6,045.2,0.268,751.4,01.17,0.508
2015-12-25 00:44:00,2196E-3,5C000400,-0724,0834,12127,020.6,045.2,0.269,751.6,01.17,0.508
2015-12-25 00:45:00,2058E-3,5C000400,-0724,0833,12216,020.6,045.3,0.268,751.4,01.17,0.508
2015-12-25 00:46:00,2165E-3,5C000400,-0724,0834,12147,020.6,045.2,0.268,751.3,01.17,0.508
2015-12-25 00:47:00,2163E-3,5C000400,-0724,0834,12132,020.6,045.2,0.268,751.3,01.17,0.508
2015-12-25 00:48:00,2291E-3,5C000400,-0724,0834,12262,020.6,045.2,0.268,751.3,01.17,0.508
2015-12-25 00:49:00,2162E-3,5C000400,-0724,0833,12030,020.6,045.2,0.268,751.2,01.17,0.508
2015-12-25 00:50:00,2313E-3,5C000400,-0724,0834,12012,020.6,045.2,0.269,751.0,01.17,0.508
2015-12-25 00:51:00,2173E-3,5C000400,-0724,0834,12034,020.6,045.2,0.268,751.1,01.17,0.508
2015-12-25 00:52:00,2070E-3,5C000400,-0724,0834,12047,020.6,045.2,0.268,751.0,01.17,0.508
2015-12-25 00:53:00,1978E-3,5C000400,-0724,0833,12040,020.6,045.2,0.268,751.0,01.17,0.508
2015-12-25 00:54:00,2132E-3,5C000400,-0724,0834,12097,020.6,045.2,0.268,750.8,01.17,0.508
2015-12-25 00:55:00,2170E-3,5C000400,-0724,0834,12113,020.6,045.3,0.268,751.0,01.17,0.508
2015-12-25 00:56:00,2121E-3,5C000400,-0724,0833,12179,020.6,045.2,0.269,750.8,01.17,0.508
2015-12-25 00:57:00,2148E-3,5C000400,-0724,0833,12149,020.7,045.2,0.269,750.9,01.17,0.508
2015-12-25 00:58:00,2152E-3,5C000400,-0724,0834,12153,020.6,045.2,0.268,750.9,01.17,0.508
2015-12-25 00:59:00,2253E-3,5C000400,-0724,0833,12294,020.6,045.2,0.268,750.6,01.17,0.508
2015-12-25 01:00:00,2398E-3,5C000400,-0724,0834,12235,020.6,045.3,0.268,750.4,01.17,0.508
2015-12-25 01:01:00,2111E-3,5C000400,-0724,0834,12266,020.6,045.2,0.268,750.4,01.17,0.508
2015-12-25 01:02:00,2052E-3,5C000400,-0724,0834,12141,020.6,045.2,0.269,750.3,01.17,0.508
2015-12-25 01:03:00,2275E-3,5C000400,-0724,0833,12123,020.6,045.2,0.269,750.0,01.17,0.508
2015-12-25 01:04:00,2102E-3,5C000400,-0724,0834,12247,020.6,045.2,0.268,750.0,01.17,0.508
2015-12-25 01:05:00,2246E-3,5C000400,-0724,0833,12036,020.6,045.3,0.268,750.2,01.17,0.508
2015-12-25 01:06:00,2086E-3,5C000400,-0724,0834,12011,020.6,045.2,0.268,750.2,01.17,0.508
2015-12-25 01:07:00,2259E-3,5C000400,-0724,0833,12110,020.6,045.2,0.269,749.9,01.17,0.508
2015-12-25 01:08:00,2052E-3,5C000400,-0724,0833,12216,020.6,045.2,0.268,750.1,01.17,0.508
2015-12-25 01:09:00,2137E-3,5C000400,-0724,0834,12173,020.6,045.2,0.268,749.9,01.17,0.508
2015-12-25 01:10:00,2150E-3,5C000400,-0724,0833,12100,020.6,045.2,0.268,749.8,01.17,0.508
2015-12-25 01:11:00,2105E-3,5C000400,-0724,0834,12101,020.5,045.2,0.269,750.0,01.17,0.508
2015-12-25 01:12:00,2232E-3,5C000400,-0724,0833,12247,020.6,045.3,0.269,750.1,01.17,0.508
2015-12-25 01:13:00,2198E-3,5C000400,-0724,0833,12104,020.6,045.2,0.268,750.1,01.17,0.508
2015-12-25 01:14:00,2165E-3,5C000400,-0724,0833,12165,020.6,045.2,0.269,750.1,01.17,0.508
2015-12-25 01:15:00,2293E-3,5C000400,-0724,0833,12086,020.6,045.2,0.269,750.3,01.17,0.508
2015-12-25 01:16:00,2068E-3,5C000400,-0724,0833,12089,020.5,045.2,0.269,750.1,01.17,0.508
2015-12-25 01:17:00,2143E-3,5C000400,-0724,0834,12314,020.5,045.3,0.268,750.4,01.17,0.508
2015-12-25 01:18:00,2171E-3,5C000400,-0724,0834,12168,020.5,045.3,0.268,750.7,01.17,0.508
2015-12-25 01:19:00,2011E-3,5C000400,-0724,0833,12079,020.5,045.2,0.268,750.4,01.17,0.508
2015-12-25 01:20:00,2233E-3,5C000400,-0724,0833,12279,020.5,045.2,0.269,750.4,01.17,0.508
2015-12-25 01:21:00,2159E-3,5C000400,-0724,0833,12126,020.5,045.3,0.269,750.6,01.17,0.508
2015-12-25 01:22:00,2135E-3,5C000400,-0724,0834,12314,020.5,045.2,0.268,750.5,01.17,0.508
2015-12-25 01:23:00,2080E-3,5C000400,-0724,0833,12155,020.5,045.3,0.268,750.7,01.17,0.508
2015-12-25 01:24:00,2082E-3,5C000400,-0724,0834,12212,020.5,045.3,0.269,750.4,01.17,0.508
2015-12-25 01:25:00,2079E-3,5C000400,-0724,0833,12148,020.5,045.2,0.268,750.7,01.17,0.508
2015-12-25 01:26:00,2194E-3,5C000400,-0724,0833,12218,020.5,045.2,0.269,750.5,01.17,0.508
2015-12-25 01:27:00,2194E-3,5C000400,-0724,0834,12109,020.5,045.2,0.269,750.8,01.17,0.508
2015-12-25 01:28:00,2111E-3,5C000400,-0724,0834,12265,020.5,045.3,0.269,750.8,01.17,0.508
2015-12-25 01:29:00,2166E-3,5C000400,-0724,0833,12138,020.5,045.2,0.268,750.6,01.17,0.508
2015-12-25 01:30:00,2070E-3,5C000400,-0724,0833,12197,020.5,045.2,0.268,751.0,01.17,0.508
2015-12-25 01:31:00,2054E-3,5C000400,-0724,0834,12153,020.5,045.2,0.268,750.9,01.17,0.508
2015-12-25 01:32:00,2201E-3,5C000400,-0724,0833,12154,020.5,045.2,0.269,751.0,01.17,0.508
2015-12-25 01:33:00,2048E-3,5C000400,-0724,0833,12189,020.5,045.2,0.269,750.6,01.17,0.508
2015-12-25 01:34:00,2244E-3,5C000400,-0724,0833,12211,020.5,045.2,0.269,750.9,01.17,0.508
2015-12-25 01:35:00,2042E-3,5C000400,-0724,0833,12160,020.5,045.3,0.269,750.8,01.17,0.508
2015-12-25 01:36:00,2183E-3,5C000400,-0724,0832,12279,020.5,045.3,0.269,750.9,01.17,0.508
2015-12-25 01:37:00,2171E-3,5C000400,-0724,0834,12150,020.5,045.3,0.269,750.9,01.17,0.508
2015-12-25 01:38:00,2187E-3,5C000400,-0724,0833,12060,020.4,045.2,0.269,750.9,01.17,0.508
2015-12-25 01:39:00,2040E-3,5C000400,-0724,0833,12242,020.5,045.3,0.268,750.7,01.17,0.508
2015-12-25 01:40:00,2181E-3,5C000400,-0724,0833,12178,020.5,045.2,0.268,750.7,01.17,0.508
2015-12-25 01:41:00,2051E-3,5C000400,-0724,0833,12155,020.4,045.3,0.269,751.1,01.17,0.508
2015-12-25 01:42:00,2028E-3,5C000400,-0724,0833,12014,020.4,045.3,0.269,750.9,01.17,0.508
2015-12-25 01:43:00,2066E-3,5C000400,-0724,0833,12160,020.4,045.2,0.269,751.0,01.17,0.508
2015-12-25 01:44:00,2158E-3,5C000400,-0724,0833,12061,020.4,045.2,0.269,751.1,01.17,0.508
2015-12-25 01:45:00,2177E-3,5C000400,-0724,0833,12187,020.4,045.2,0.268,751.2,01.17,0.508
2015-12-25 01:46:00,2099E-3,5C000400,-0724,0834,12145,020.4,045.3,0.268,751.3,01.17,0.508
2015-12-25 01:47:00,2079E-3,5C000400,-0724,0833,12205,020.4,045.2,0.269,751.3,01.17,0.508
2015-12-25 01:48:00,2209E-3,5C000400,-0724,0833,12253,020.4,045.2,0.269,751.2,01.17,0.508
2015-12-25 01:49:00,2129E-3,5C000400,-0724,0833,12139,020.5,045.3,0.269,751.5,01.17,0.508
2015-12-25 01:50:00,2099E-3,5C000400,-0724,0833,12188,020.4,045.2,0.269,751.0,01.17,0.508
2015-12-25 01:51:00,2149E-3,5C000400,-0724,0833,12113,020.4,045.2,0.269,751.2,01.17,0.508
2015-12-25 01:52:00,2179E-3,5C000400,-0724,0834,12241,020.4,045.2,0.268,751.2,01.17,0.508
2015-12-25 01:53:00,2101E-3,5C000400,-0724,0834,12142,020.4,045.3,0.268,751.1,01.17,0.508
2015-12-25 01:54:00,2033E-3,5C000400,-0724,0833,12337,020.4,045.2,0.269,751.1,01.17,0.508
2015-12-25 01:55:00,2101E-3,5C000400,-0724,0833,12161,020.4,045.2,0.269,750.8,01.17,0.508
2015-12-25 01:56:00,2261E-3,5C000400,-0724,0833,12288,020.4,045.3,0.269,750.7,01.17,0.508
2015-12-25 01:57:00,2222E-3,5C000400,-0724,0833,12212,020.4,045.3,0.269,750.7,01.17,0.508
2015-12-25 01:58:00,2047E-3,5C000400,-0724,0833,12154,020.4,045.2,0.269,750.6,01.17,0.508
2015-12-25 01:59:00,2179E-3,5C000400,-0724,0833,12145,020.4,045.2,0.269,750.5,01.17,0.508
2015-12-25 02:00:00,2172E-3,5C000400,-0724,0833,12135,020.4,045.2,0.269,750.9,01.17,0.508
2015-12-25 02:01:00,2173E-3,5C000400,-0724,0833,12111,020.4,045.2,0.269,751.1,01.17,0.508
2015-12-25 02:02:00,2005E-3,5C000400,-0724,0834,12092,020.4,045.3,0.269,750.7,01.17,0.508
2015-12-25 02:03:00,2143E-3,5C000400,-0724,0834,12113,020.4,045.2,0.269,750.9,01.17,0.508
2015-12-25 02:04:00,2226E-3,5C000400,-0724,0833,12202,020.4,045.2,0.268,751.0,01.17,0.508
2015-12-25 02:05:00,2179E-3,5C000400,-0724,0834,12376,020.4,045.2,0.269,750.9,01.17,0.508
2015-12-25 02:06:00,1994E-3,5C000400,-0724,0833,12282,020.4,045.2,0.269,751.1,01.17,0.508
2015-12-25 02:07:00,2284E-3,5C000400,-0724,0833,12170,020.4,045.2,0.269,751.0,01.17,0.508
2015-12-25 02:08:00,2058E-3,5C000400,-0724,0833,12185,020.4,045.2,0.269,751.2,01.17,0.508
2015-12-25 02:09:00,2280E-3,5C000400,-0724,0833,12286,020.4,045.2,0.268,751.0,01.17,0.508
2015-12-25 02:10:00,2184E-3,5C000400,-0724,0833,12260,020.4,045.2,0.269,750.9,01.17,0.508
2015-12-25 02:11:00,2056E-3,5C000400,-0724,0833,12203,020.4,045.2,0.269,750.7,01.17,0.508
2015-12-25 02:12:00,2008E-3,5C000400,-0724,0833,12146,020.4,045.2,0.269,750.7,01.17,0.508
2015-12-25 02:13:00,2350E-3,5C000400,-0724,0833,12203,020.4,045.2,0.269,750.8,01.17,0.508
2015-12-25 02:14:00,2055E-3,5C000400,-0724,0834,12270,020.4,045.2,0.269,750.4,01.17,0.508
2015-12-25 02:15:00,2201E-3,5C000400,-0724,0834,12115,020.4,045.2,0.269,750.5,01.17,0.508
2015-12-25 02:16:00,2130E-3,5C000400,-0724,0834,12251,020.4,045.2,0.269,750.3,01.17,0.508
2015-12-25 02:17:00,2155E-3,5C000400,-0724,0833,12038,020.4,045.2,0.269,750.5,01.17,0.508
2015-12-25 02:18:00,2262E-3,5C000400,-0724,0834,12156,020.4,045.2,0.269,750.1,01.17,0.508
2015-12-25 02:19:00,2129E-3,5C000400,-0724,0833,12115,020.3,045.2,0.269,750.5,01.17,0.508
2015-12-25 02:20:00,2174E-3,5C000400,-0724,0833,12178,020.4,045.2,0.269,750.1,01.17,0.508
2015-12-25 02:21:00,2062E-3,5C000400,-0724,0833,12333,020.4,045.2,0.269,750.4,01.17,0.508
2015-12-25 02:22:00,2093E-3,5C000400,-0724,0833,12029,020.4,045.2,0.269,750.2,01.17,0.508
2015-12-25 02:23:00,2124E-3,5C000400,-0724,0833,12147,020.3,045.2,0.269,750.1,01.17,0.508
2015-12-25 02:24:00,2172E-3,5C000400,-0724,0834,12074,020.3,045.2,0.269,750.2,01.17,0.508
2015-12-25 02:25:00,2166E-3,5C000400,-0724,0833,12112,020.3,045.2,0.269,750.4,01.17,0.508
2015-12-25 02:26:00,2090E-3,5C000400,-0724,0834,12182,020.3,045.2,0.269,750.7,01.17,0.508
2015-12-25 02:27:00,2074E-3,5C000400,-0724,0833,12199,020.3,045.2,0.269,750.9,01.17,0.508
2015-12-25 02:28:00,2232E-3,5C000400,-0724,0834,12292,020.3,045.2,0.269,750.6,01.17,0.508
2015-12-25 02:29:00,2122E-3,5C000400,-0724,0833,12274,020.3,045.2,0.269,750.9,01.17,0.508
2015-12-25 02:30:00,2125E-3,5C000400,-0724,0833,12175,020.3,045.2,0.269,750.8,01.17,0.508
2015-12-25 02:31:00,2071E-3,5C000400,-0724,0833,12124,020.3,045.2,0.269,750.7,01.17,0.508
2015-12-25 02:32:00,2111E-3,5C000400,-0724,0834,12220,020.3,045.3,0.269,750.9,01.17,0.508
2015-12-25 02:33:00,2077E-3,5C000400,-0724,0834,12269,020.3,045.2,0.269,750.7,01.17,0.508
2015-12-25 02:34:00,2176E-3,5C000400,-0724,0833,12206,020.3,045.2,0.269,750.5,01.17,0.508
2015-12-25 02:35:00,2113E-3,5C000400,-0724,0833,12218,020.3,045.2,0.269,750.8,01.17,0.508
2015-12-25 02:36:00,1949E-3,5C000400,-0724,0833,12257,020.3,045.2,0.269,750.7,01.17,0.508
2015-12-25 02:37:00,2074E-3,5C000400,-0724,0834,12160,020.3,045.3,0.269,750.7,01.17,0.508
2015-12-25 02:38:00,2122E-3,5C000400,-0724,0834,12272,020.3,045.2,0.269,750.6,01.17,0.508
2015-12-25 02:39:00,2169E-3,5C000400,-0724,0833,12238,020.3,045.2,0.269,750.7,01.17,0.508
2015-12-25 02:40:00,2009E-3,5C000400,-0724,0834,12215,020.3,045.2,0.269,750.7,01.17,0.508
2015-12-25 02:41:00,2093E-3,5C000400,-0724,0834,12202,020.3,045.2,0.269,750.8,01.17,0.508
2015-12-25 02:42:00,2144E-3,5C000400,-0724,0833,12132,020.3,045.2,0.269,750.5,01.17,0.508
2015-12-25 02:43:00,2193E-3,5C000400,-0724,0833,12112,020.3,045.2,0.269,750.7,01.17,0.508
2015-12-25 02:44:00,2064E-3,5C000400,-0724,0833,12081,020.3,045.2,0.269,750.9,01.17,0.508
2015-12-25 02:45:00,2216E-3,5C000400,-0724,0833,12046,020.3,045.3,0.269,750.8,01.17,0.508
2015-12-25 02:46:00,2148E-3,5C000400,-0724,0833,12102,020.3,045.3,0.269,750.8,01.17,0.508
2015-12-25 02:47:00,2087E-3,5C000400,-0724,0833,12342,020.3,045.2,0.269,751.1,01.17,0.508
2015-12-25 02:48:00,2033E-3,5C000400,-0724,0833,12268,020.3,045.2,0.269,751.3,01.17,0.508
2015-12-25 02:49:00,2211E-3,5C000400,-0724,0834,12329,020.3,045.2,0.269,751.2,01.17,0.508
2015-12-25 02:50:00,2200E-3,5C000400,-0724,0834,12207,020.3,045.2,0.269,751.4,01.17,0.508
2015-12-25 02:51:00,2046E-3,5C000400,-0724,0834,12272,020.3,045.2,0.269,751.4,01.17,0.508
2015-12-25 02:52:00,2124E-3,5C000400,-0724,0834,12193,020.3,045.2,0.269,751.3,01.17,0.508
2015-12-25 02:53:00,2116E-3,5C000400,-0724,0833,12236,020.3,045.2,0.269,751.2,01.17,0.508
2015-12-25 02:54:00,2088E-3,5C000400,-0724,0833,12226,020.3,045.3,0.269,751.4,01.17,0.508
2015-12-25 02:55:00,2001E-3,5C000400,-0724,0833,12153,020.3,045.2,0.269,751.2,01.17,0.508
2015-12-25 02:56:00,2126E-3,5C000400,-0724,0833,12098,020.3,045.2,0.269,751.1,01.17,0.508
2015-12-25 02:57:00,2150E-3,5C000400,-0724,0833,12210,020.3,045.2,0.269,751.1,01.17,0.508
2015-12-25 02:58:00,2204E-3,5C000400,-0724,0834,12243,020.3,045.2,0.269,751.2,01.17,0.508
2015-12-25 02:59:00,2177E-3,5C000400,-0724,0833,12018,020.3,045.3,0.269,751.0,01.17,0.508
2015-12-25 03:00:00,2208E-3,5C000400,-0724,0834,12196,020.3,045.2,0.268,751.0,01.17,0.508
2015-12-25 03:01:00,2231E-3,5C000400,-0724,0833,12203,020.3,045.2,0.269,751.3,01.17,0.508
2015-12-25 03:02:00,2198E-3,5C000400,-0724,0833,12172,020.3,045.2,0.269,751.0,01.17,0.508
2015-12-25 03:03:00,2083E-3,5C000400,-0724,0833,12269,020.3,045.2,0.269,751.2,01.17,0.508
2015-12-25 03:04:00,2157E-3,5C000400,-0724,0833,12158,020.3,045.2,0.269,750.7,01.17,0.508
2015-12-25 03:05:00,2083E-3,5C000400,-0724,0833,12251,020.3,045.2,0.269,750.8,01.17,0.508
2015-12-25 03:06:00,1969E-3,5C000400,-0724,0833,12169,020.3,045.2,0.269,750.9,01.17,0.508
2015-12-25 03:07:00,2199E-3,5C000400,-0724,0834,12251,020.3,045.2,0.269,750.7,01.17,0.508
2015-12-25 03:08:00,2175E-3,5C000400,-0724,0833,12124,020.3,045.3,0.269,750.5,01.17,0.508
2015-12-25 03:09:00,2128E-3,5C000400,-0724,0834,12172,020.3,045.2,0.268,750.5,01.17,0.508
2015-12-25 03:10:00,2273E-3,5C000400,-0724,0834,12221,020.3,045.2,0.269,750.3,01.17,0.508
2015-12-25 03:11:00,2093E-3,5C000400,-0724,0833,12113,020.3,045.2,0.269,750.3,01.17,0.508
2015-12-25 03:12:00,2107E-3,5C000400,-0724,0834,12282,020.3,045.2,0.269,750.3,01.17,0.508
2015-12-25 03:13:00,2127E-3,5C000400,-0724,0834,12103,020.3,045.2,0.269,750.2,01.17,0.508
2015-12-25 03:14:00,2213E-3,5C000400,-0724,0833,12217,020.3,045.2,0.269,750.2,01.17,0.508
2015-12-25 03:15:00,2195E-3,5C000400,-0724,0834,12063,020.3,045.2,0.269,749.9,01.17,0.508
2015-12-25 03:16:00,2084E-3,5C000400,-0724,0834,12163,020.3,045.2,0.269,749.9,01.17,0.508
2015-12-25 03:17:00,2156E-3,5C000400,-0724,0833,12085,020.3,045.3,0.269,749.9,01.17,0.508
2015-12-25 03:18:00,2153E-3,5C000400,-0724,0833,12163,020.3,045.2,0.269,749.5,01.17,0.508
2015-12-25 03:19:00,2053E-3,5C000400,-0724,0833,12232,020.3,045.2,0.269,749.7,01.17,0.508
2015-12-25 03:20:00,2020E-3,5C000400,-0724,0833,12217,020.3,045.2,0.269,749.0,01.17,0.508
2015-12-25 03:21:00,2119E-3,5C000400,-0724,0833,12098,020.3,045.2,0.269,749.3,01.17,0.508
2015-12-25 03:22:00,2081E-3,5C000400,-0724,0833,12114,020.3,045.2,0.269,749.5,01.17,0.508
2015-12-25 03:23:00,2129E-3,5C000400,-0724,0834,12260,020.3,045.2,0.269,748.9,01.17,0.508
2015-12-25 03:24:00,2165E-3,5C000400,-0724,0833,12268,020.2,045.2,0.269,748.9,01.17,0.508
2015-12-25 03:25:00,2099E-3,5C000400,-0724,0833,12154,020.3,045.2,0.269,748.8,01.17,0.508
2015-12-25 03:26:00,2114E-3,5C000400,-0724,0834,12077,020.2,045.2,0.269,748.6,01.17,0.508
2015-12-25 03:27:00,2153E-3,5C000400,-0724,0834,12306,020.2,045.3,0.269,748.5,01.17,0.508
2015-12-25 03:28:00,2148E-3,5C000400,-0724,0833,12189,020.2,045.2,0.269,748.9,01.17,0.508
2015-12-25 03:29:00,2013E-3,5C000400,-0724,0833,12270,020.2,045.2,0.269,748.7,01.17,0.508
2015-12-25 03:30:00,2003E-3,5C000400,-0724,0833,12160,020.3,045.2,0.269,748.8,01.17,0.508
2015-12-25 03:31:00,2088E-3,5C000400,-0724,0834,12102,020.2,045.2,0.269,748.5,01.17,0.508
2015-12-25 03:32:00,2167E-3,5C000400,-0724,0834,12269,020.2,045.2,0.269,748.7,01.17,0.508
2015-12-25 03:33:00,2088E-3,5C000400,-0724,0834,12194,020.2,045.2,0.269,748.7,01.17,0.508
2015-12-25 03:34:00,2048E-3,5C000400,-0724,0834,12223,020.2,045.2,0.269,748.2,01.17,0.508
2015-12-25 03:35:00,1987E-3,5C000400,-0724,0833,12208,020.2,045.2,0.269,748.5,01.17,0.508
2015-12-25 03:36:00,2151E-3,5C000400,-0724,0833,12111,020.2,045.2,0.269,748.7,01.17,0.508
2015-12-25 03:37:00,2210E-3,5C000400,-0724,0833,12192,020.1,045.2,0.269,748.3,01.17,0.508
2015-12-25 03:38:00,2152E-3,5C000400,-0724,0834,12157,020.1,045.2,0.269,748.3,01.17,0.508
2015-12-25 03:39:00,2106E-3,5C000400,-0724,0833,12085,020.1,045.2,0.269,748.8,01.17,0.508
2015-12-25 03:40:00,2227E-3,5C000400,-0724,0833,12080,020.1,045.2,0.269,748.8,01.17,0.508
2015-12-25 03:41:00,2093E-3,5C000400,-0724,0833,12177,020.1,045.2,0.269,748.4,01.17,0.508
2015-12-25 03:42:00,2029E-3,5C000400,-0724,0833,12191,020.1,045.2,0.269,748.3,01.17,0.508
2015-12-25 03:43:00,2109E-3,5C000400,-0724,0833,12288,020.1,045.2,0.269,748.0,01.17,0.508
2015-12-25 03:44:00,2152E-3,5C000400,-0724,0833,12015,020.1,045.2,0.269,748.4,01.17,0.508
2015-12-25 03:45:00,2036E-3,5C000400,-0724,0834,12131,020.0,045.2,0.269,748.3,01.17,0.508
2015-12-25 03:46:00,2076E-3,5C000400,-0724,0833,12137,020.1,045.2,0.269,747.9,01.17,0.508
2015-12-25 03:47:00,2238E-3,5C000400,-0724,0833,12230,020.0,045.2,0.269,747.9,01.17,0.508
2015-12-25 03:48:00,2172E-3,5C000400,-0724,0834,12200,020.0,045.2,0.269,748.1,01.17,0.508
2015-12-25 03:49:00,2137E-3,5C000400,-0724,0833,12123,020.0,045.2,0.269,747.9,01.17,0.508
2015-12-25 03:50:00,2051E-3,5C000400,-0724,0833,12098,020.0,045.2,0.270,747.8,01.17,0.508
2015-12-25 03:51:00,2016E-3,5C000400,-0724,0834,12089,020.0,045.2,0.269,747.8,01.17,0.508
2015-12-25 03:52:00,2115E-3,5C000400,-0724,0833,12251,020.0,045.2,0.269,747.8,01.17,0.508
2015-12-25 03:53:00,2019E-3,5C000400,-0724,0833,12106,020.0,045.2,0.269,747.9,01.17,0.508
2015-12-25 03:54:00,1979E-3,5C000400,-0724,0834,12138,019.9,045.2,0.270,747.9,01.17,0.508
2015-12-25 03:55:00,2224E-3,5C000400,-0724,0833,12173,020.0,045.2,0.269,747.8,01.17,0.508
2015-12-25 03:56:00,2198E-3,5C000400,-0724,0833,12243,019.9,045.2,0.270,748.1,01.17,0.508
2015-12-25 03:57:00,2170E-3,5C000400,-0724,0833,12183,019.9,045.2,0.270,748.0,01.17,0.508
2015-12-25 03:58:00,2106E-3,5C000400,-0724,0833,11985,019.9,045.2,0.269,747.5,01.17,0.508
2015-12-25 03:59:00,2077E-3,5C000400,-0724,0833,12105,019.9,045.2,0.269,747.6,01.17,0.508
2015-12-25 04:00:00,2056E-3,5C000400,-0724,0834,12071,019.9,045.2,0.269,747.7,01.17,0.508
2015-12-25 04:01:00,2125E-3,5C000400,-0724,0833,12234,019.9,045.2,0.269,747.8,01.17,0.508
2015-12-25 04:02:00,2064E-3,5C000400,-0724,0833,12253,019.8,045.2,0.270,747.8,01.17,0.508
2015-12-25 04:03:00,2108E-3,5C000400,-0724,0833,12144,019.8,045.2,0.270,748.1,01.17,0.508
2015-12-25 04:04:00,2080E-3,5C000400,-0724,0833,12135,019.8,045.2,0.269,748.3,01.17,0.508
2015-12-25 04:05:00,2048E-3,5C000400,-0724,0833,12174,019.8,045.2,0.270,747.9,01.17,0.508
2015-12-25 04:06:00,2116E-3,5C000400,-0724,0833,12057,019.8,045.2,0.270,748.3,01.17,0.508
2015-12-25 04:07:00,2160E-3,5C000400,-0724,0834,12140,019.8,045.2,0.269,748.2,01.17,0.508
2015-12-25 04:08:00,2098E-3,5C000400,-0724,0834,12178,019.8,045.2,0.270,748.1,01.17,0.508
2015-12-25 04:09:00,2035E-3,5C000400,-0724,0833,12212,019.8,045.2,0.270,747.9,01.17,0.508
2015-12-25 04:10:00,1944E-3,5C000400,-0724,0833,12286,019.8,045.2,0.270,747.8,01.17,0.508
2015-12-25 04:11:00,1797E-3,5C000400,-0724,0833,11987,019.7,045.2,0.270,748.3,01.17,0.508
2015-12-25 04:12:00,2011E-3,5C000400,-0724,0833,12027,019.7,045.2,0.269,748.5,01.17,0.508
2015-12-25 04:13:00,2137E-3,5C000400,-0724,0833,12308,019.7,045.2,0.270,748.4,01.17,0.508
2015-12-25 04:14:00,2105E-3,5C000400,-0724,0833,12232,019.7,045.2,0.270,748.5,01.17,0.508
2015-12-25 04:15:00,2113E-3,5C000400,-0724,0833,12093,019.7,045.2,0.270,748.0,01.17,0.508
2015-12-25 04:16:00,2111E-3,5C000400,-0724,0833,12130,019.6,045.2,0.270,748.2,01.17,0.508
2015-12-25 04:17:00,2120E-3,5C000400,-0724,0833,12087,019.6,045.2,0.270,748.1,01.17,0.508
2015-12-25 04:18:00,2237E-3,5C000400,-0724,0833,12239,019.6,045.2,0.270,748.1,01.17,0.508
2015-12-25 04:19:00,2044E-3,5C000400,-0724,0833,12061,019.6,045.2,0.270,748.3,01.17,0.508
2015-12-25 04:20:00,2075E-3,5C000400,-0724,0833,12056,019.6,045.2,0.270,748.3,01.17,0.508